TZP26 RJAA-KSFO

Flight info

Callsign TZP26
Flight time N/A
Altitude 39000
Route GULBO Y808 NOLAX Y814 AVBET OTR11 LEPKI 40N160E 41N170E 41N180E/N0490F410 41N170W 41N160W 41N150W 40N140W 38N130W DCT ALLBE DCT PIRAT DCT OSI
Aircraft B788/H-SDE1E2E3FGHIJ2J3J4J5M1RWXY/LB1D1

Departure

Time 2026-05-04 14:41
Airport Narita International Airport (RJAA)

Arrival

Time N/A
Airport San Francisco International Airport (KSFO)
Time Latitude Longitude Altitude Speed Heading
2026-05-04 14:14 35.76518 140.38304 149 ft 0 kts 201°
2026-05-04 14:26 35.76521 140.38306 149 ft 3 kts 201°
2026-05-04 14:26 35.76546 140.38315 149 ft 5 kts 187°
2026-05-04 14:27 35.76572 140.38315 149 ft 5 kts 159°
2026-05-04 14:27 35.76590 140.38298 149 ft 5 kts 120°
2026-05-04 14:27 35.76603 140.38269 149 ft 5 kts 117°
2026-05-04 14:27 35.76615 140.38239 149 ft 5 kts 112°
2026-05-04 14:28 35.76624 140.38208 149 ft 4 kts 104°
2026-05-04 14:28 35.76630 140.38183 149 ft 5 kts 121°
2026-05-04 14:28 35.76647 140.38164 149 ft 5 kts 175°
2026-05-04 14:28 35.76672 140.38170 149 ft 5 kts 207°
2026-05-04 14:29 35.76686 140.38179 149 ft 0 kts 207°
2026-05-04 14:32 35.76681 140.38175 149 ft 1 kts 217°
2026-05-04 14:32 35.76668 140.38159 149 ft 5 kts 230°
2026-05-04 14:33 35.76653 140.38103 149 ft 8 kts 269°
2026-05-04 14:33 35.76663 140.38034 149 ft 8 kts 283°
2026-05-04 14:33 35.76658 140.37973 149 ft 7 kts 248°
2026-05-04 14:33 35.76637 140.37922 149 ft 7 kts 241°
2026-05-04 14:34 35.76607 140.37859 149 ft 10 kts 240°
2026-05-04 14:34 35.76569 140.37778 149 ft 11 kts 234°
2026-05-04 14:34 35.76506 140.37762 149 ft 11 kts 161°
2026-05-04 14:34 35.76414 140.37826 149 ft 20 kts 149°
2026-05-04 14:35 35.76271 140.37929 149 ft 26 kts 150°
2026-05-04 14:35 35.76119 140.38038 150 ft 25 kts 149°
2026-05-04 14:35 35.75976 140.38143 150 ft 23 kts 149°
2026-05-04 14:35 35.75837 140.38243 150 ft 23 kts 149°
2026-05-04 14:36 35.75705 140.38340 150 ft 22 kts 149°
2026-05-04 14:36 35.75575 140.38432 150 ft 21 kts 150°
2026-05-04 14:36 35.75446 140.38524 150 ft 24 kts 149°
2026-05-04 14:36 35.75269 140.38651 150 ft 35 kts 149°
2026-05-04 14:37 35.75119 140.38761 150 ft 40 kts 149°
2026-05-04 14:37 35.74908 140.38913 151 ft 31 kts 150°
2026-05-04 14:37 35.74672 140.39084 150 ft 29 kts 149°
2026-05-04 14:37 35.74513 140.39198 150 ft 16 kts 150°
2026-05-04 14:38 35.74435 140.39224 149 ft 10 kts 196°
2026-05-04 14:38 35.74401 140.39190 149 ft 10 kts 237°
2026-05-04 14:38 35.74364 140.39112 147 ft 11 kts 243°
2026-05-04 14:38 35.74370 140.39047 148 ft 6 kts 319°
2026-05-04 14:39 35.74384 140.39035 148 ft 0 kts 330°
2026-05-04 14:40 35.74386 140.39033 148 ft 4 kts 330°
2026-05-04 14:40 35.74540 140.38922 149 ft 52 kts 329°
2026-05-04 14:40 35.75027 140.38570 150 ft 110 kts 330°
2026-05-04 14:41 35.75837 140.37986 153 ft 158 kts 329°
2026-05-04 14:41 35.76867 140.37228 525 ft 177 kts 324°
2026-05-04 14:41 35.78890 140.35730 2514 ft 164 kts 325°
2026-05-04 14:42 35.80976 140.34182 3707 ft 191 kts 325°
2026-05-04 14:42 35.82189 140.33309 4117 ft 214 kts 326°
2026-05-04 14:42 35.83551 140.32359 4688 ft 231 kts 327°
2026-05-04 14:43 35.84976 140.31367 5505 ft 239 kts 326°
2026-05-04 14:43 35.86504 140.30465 6248 ft 249 kts 332°
2026-05-04 14:43 35.88085 140.29515 6984 ft 255 kts 327°
2026-05-04 14:43 35.89641 140.28416 7772 ft 260 kts 324°
2026-05-04 14:44 35.91215 140.27261 8550 ft 267 kts 324°
2026-05-04 14:44 35.92875 140.26135 9277 ft 280 kts 335°
2026-05-04 14:44 35.94871 140.26015 10016 ft 300 kts
2026-05-04 14:44 35.96926 140.26795 10482 ft 325 kts 26°
2026-05-04 14:45 35.98675 140.28667 10830 ft 354 kts 53°
2026-05-04 14:45 35.99707 140.31529 11096 ft 377 kts 80°
2026-05-04 14:45 35.99719 140.34810 11465 ft 389 kts 106°
2026-05-04 14:45 35.98765 140.37931 12069 ft 390 kts 123°
2026-05-04 14:46 35.97373 140.40820 12702 ft 395 kts 129°
2026-05-04 14:46 35.95904 140.43737 13362 ft 405 kts 127°
2026-05-04 14:46 35.94608 140.46893 13969 ft 418 kts 120°
2026-05-04 14:46 35.93462 140.50221 14605 ft 424 kts 119°
2026-05-04 14:47 35.92261 140.53559 15275 ft 426 kts 123°
2026-05-04 14:47 35.90950 140.56806 15918 ft 429 kts 124°
2026-05-04 14:47 35.89609 140.60122 16560 ft 435 kts 123°
2026-05-04 14:47 35.88310 140.63528 17225 ft 440 kts 122°
2026-05-04 14:48 35.87146 140.67057 17863 ft 452 kts 112°
2026-05-04 14:48 35.86567 140.70927 18480 ft 466 kts 98°
2026-05-04 14:48 35.86648 140.74972 18975 ft 477 kts 89°
2026-05-04 14:48 35.86907 140.79065 19454 ft 482 kts 89°
2026-05-04 14:49 35.87223 140.83214 19943 ft 488 kts 88°
2026-05-04 14:49 35.87583 140.87397 20421 ft 493 kts 88°
2026-05-04 14:49 35.87920 140.91625 20888 ft 498 kts 89°
2026-05-04 14:49 35.88228 140.95897 21334 ft 503 kts 90°
2026-05-04 14:50 35.88549 141.00229 21790 ft 508 kts 89°
2026-05-04 14:50 35.88887 141.04530 22222 ft 513 kts 89°
2026-05-04 14:50 35.89229 141.08941 22655 ft 518 kts 90°
2026-05-04 14:50 35.89559 141.13386 23083 ft 523 kts 90°
2026-05-04 14:51 35.89889 141.17875 23480 ft 528 kts 90°
2026-05-04 14:51 35.90229 141.22408 23835 ft 532 kts 90°
2026-05-04 14:51 35.90572 141.26961 24200 ft 536 kts 90°
2026-05-04 14:51 35.90910 141.31550 24564 ft 539 kts 90°
2026-05-04 14:52 35.91247 141.36175 24943 ft 542 kts 91°
2026-05-04 14:52 35.91585 141.40812 25302 ft 545 kts 91°
2026-05-04 14:52 35.91926 141.45482 25627 ft 547 kts 91°
2026-05-04 14:52 35.92266 141.50168 25996 ft 550 kts 91°
2026-05-04 14:53 35.92603 141.54880 26363 ft 552 kts 91°
2026-05-04 14:53 35.92936 141.59545 26723 ft 554 kts 91°
2026-05-04 14:53 35.93275 141.64309 27084 ft 557 kts 91°
2026-05-04 14:53 35.93612 141.69078 27441 ft 559 kts 91°
2026-05-04 14:54 35.93949 141.73866 27792 ft 561 kts 91°
2026-05-04 14:54 35.94285 141.78682 28137 ft 564 kts 92°
2026-05-04 14:54 35.94620 141.83511 28488 ft 566 kts 92°
2026-05-04 14:54 35.94956 141.88372 28817 ft 568 kts 92°
2026-05-04 14:55 35.95290 141.93248 29159 ft 571 kts 92°
2026-05-04 14:55 35.95620 141.98084 29477 ft 573 kts 92°
2026-05-04 14:55 35.95953 142.02999 29793 ft 575 kts 92°
2026-05-04 14:55 35.96286 142.07934 30061 ft 577 kts 92°
2026-05-04 14:56 35.96618 142.12890 30335 ft 579 kts 92°
2026-05-04 14:56 35.96948 142.17849 30600 ft 581 kts 92°
2026-05-04 14:56 35.97278 142.22830 30857 ft 582 kts 92°
2026-05-04 14:56 35.97601 142.27754 31105 ft 584 kts 92°
2026-05-04 14:57 35.97930 142.32782 31353 ft 586 kts 93°
2026-05-04 14:57 35.98256 142.37807 31599 ft 587 kts 93°
2026-05-04 14:57 35.98581 142.42846 31832 ft 589 kts 93°
2026-05-04 14:57 35.98904 142.47894 32064 ft 591 kts 93°
2026-05-04 14:58 35.99226 142.52961 32300 ft 592 kts 93°
2026-05-04 14:58 35.99547 142.58034 32524 ft 594 kts 93°
2026-05-04 14:58 35.99867 142.63134 32750 ft 595 kts 93°
2026-05-04 14:58 36.00181 142.68167 32952 ft 597 kts 93°
2026-05-04 14:59 36.00498 142.73290 33154 ft 598 kts 93°
2026-05-04 14:59 36.00814 142.78406 33472 ft 596 kts 93°
2026-05-04 14:59 36.01434 142.88599 34102 ft 593 kts 94°
2026-05-04 15:00 36.01739 142.93684 34364 ft 593 kts 94°
2026-05-04 15:00 36.02043 142.98767 34606 ft 592 kts 93°
2026-05-04 15:00 36.02345 143.03847 34848 ft 592 kts 93°
2026-05-04 15:01 36.02935 143.13908 35356 ft 591 kts 93°
2026-05-04 15:01 36.03229 143.18967 35594 ft 590 kts 93°
2026-05-04 15:01 36.03521 143.24039 35811 ft 591 kts 93°
2026-05-04 15:01 36.03812 143.29117 36026 ft 591 kts 93°
2026-05-04 15:02 36.04100 143.34186 36246 ft 591 kts 93°
2026-05-04 15:02 36.04386 143.39254 36409 ft 591 kts 93°
2026-05-04 15:02 36.04669 143.44321 36638 ft 590 kts 92°
2026-05-04 15:02 36.04950 143.49378 36854 ft 590 kts 92°
2026-05-04 15:03 36.05225 143.54372 37071 ft 590 kts 92°
2026-05-04 15:03 36.05501 143.59426 37278 ft 590 kts 92°
2026-05-04 15:03 36.05776 143.64486 37490 ft 590 kts 92°
2026-05-04 15:03 36.06048 143.69541 37698 ft 590 kts 92°
2026-05-04 15:04 36.06319 143.74609 37914 ft 590 kts 92°
2026-05-04 15:04 36.06587 143.79658 38110 ft 589 kts 92°
2026-05-04 15:04 36.06852 143.84714 38315 ft 589 kts 92°
2026-05-04 15:04 36.07116 143.89768 38513 ft 589 kts 92°
2026-05-04 15:05 36.07377 143.94822 38675 ft 589 kts 92°
2026-05-04 15:05 36.07636 143.99877 38833 ft 589 kts 92°
2026-05-04 15:05 36.08149 144.09976 38836 ft 583 kts 92°
2026-05-04 15:06 36.08642 144.19918 38835 ft 585 kts 92°
2026-05-04 15:07 36.09379 144.34965 38829 ft 584 kts 92°
2026-05-04 15:07 36.09854 144.44986 38834 ft 583 kts 93°
2026-05-04 15:08 36.10326 144.55013 38827 ft 583 kts 93°
2026-05-04 15:08 36.10786 144.65019 38826 ft 583 kts 93°
2026-05-04 15:09 36.11239 144.75021 38826 ft 582 kts 93°
2026-05-04 15:09 36.11679 144.84930 38828 ft 580 kts 92°
2026-05-04 15:10 36.12326 144.99877 38825 ft 580 kts 93°
2026-05-04 15:11 36.15334 145.52640 38822 ft 584 kts 77°
2026-05-04 15:11 36.23482 145.91153 38812 ft 579 kts 79°
2026-05-04 15:12 36.31414 146.29882 38804 ft 579 kts 79°
2026-05-04 15:12 36.38011 146.62725 38792 ft 576 kts 79°
2026-05-04 15:13 36.45620 147.01219 38785 ft 570 kts 80°
2026-05-04 15:13 36.53039 147.39444 38769 ft 565 kts 80°
2026-05-04 15:14 36.60262 147.77357 38776 ft 562 kts 81°
2026-05-04 15:14 36.67345 148.15230 38779 ft 560 kts 81°
2026-05-04 15:15 36.74234 148.52771 38766 ft 559 kts 81°
2026-05-04 15:15 36.81051 148.90631 38776 ft 558 kts 81°
2026-05-04 15:16 36.91023 149.47395 38789 ft 557 kts 82°
2026-05-04 15:17 37.01292 150.04111 38807 ft 563 kts 68°
2026-05-04 15:17 37.20371 150.57700 38780 ft 562 kts 69°
2026-05-04 15:18 37.32856 150.93649 38773 ft 561 kts 69°
2026-05-04 15:19 37.51371 151.47760 38762 ft 559 kts 69°
2026-05-04 15:19 37.69491 152.01689 38755 ft 557 kts 69°
2026-05-04 15:20 37.81457 152.37856 38761 ft 557 kts 69°
2026-05-04 15:20 37.93299 152.74102 38759 ft 557 kts 69°
2026-05-04 15:21 38.05013 153.10414 38780 ft 556 kts 69°
2026-05-04 15:22 38.22357 153.65040 38787 ft 555 kts 69°
2026-05-04 15:22 38.39338 154.19577 38793 ft 555 kts 69°
2026-05-04 15:23 38.50582 154.56287 38801 ft 554 kts 69°
2026-05-04 15:23 38.61681 154.93010 38798 ft 553 kts 69°
2026-05-04 15:24 38.83493 155.66662 38816 ft 552 kts 69°